Regional Weather Roundup
Issued by NWS Boston, MA

Current Version | Previous Version | Text Only | Print | Product List | Glossary Off
Versions: 1 2 3 4 5 6 7 8 9 10 11 12 13 14 15 16 17 18 19 20 21 22 23 24 25 26 27 28

000
ASUS41 KBOX 221010
RWRBOX

REGIONAL WEATHER ROUNDUP
NATIONAL WEATHER SERVICE TAUNTON MA
600 AM EDT MON MAY 22 2017

NOTE:  "FAIR" INDICATES FEW OR NO CLOUDS BELOW 12,000 FEET WITH NO
SIGNIFICANT WEATHER AND/OR OBSTRUCTIONS TO VISIBILITY.

MAZALL-221100-
EASTERN MASSACHUSETTS

CITY           SKY/WX    TMP DP  RH WIND       PRES   REMARKS
BOSTON         CLOUDY    54  39  57 SW9       30.23R
BEVERLY        CLOUDY    54  44  69 S3        30.21R
LAWRENCE       LGT RAIN  52  48  86 CALM      30.22S
BEDFORD        LGT RAIN  51  42  71 S8        30.19F
BLUE HILL        N/A     50  38  63 SW10      30.21R
NORWOOD        CLOUDY    52  47  83 CALM      30.22R
MARSHFIELD     CLOUDY    54  50  87 CALM      30.22S
PLYMOUTH       CLOUDY    51  44  77 S3        30.24S
TAUNTON        LGT RAIN  52  48  86 SE5       30.23R
NEW BEDFORD    MOCLDY    51  47  86 S3        30.23S
$$

MAZALL-221100-
CAPE COD AND THE ISLANDS

CITY           SKY/WX    TMP DP  RH WIND       PRES   REMARKS
FALMOUTH         N/A    N/A N/A N/A MISG        N/A
HYANNIS        CLOUDY    54  37  52 S6        30.24R
CHATHAM        CLOUDY    54  39  57 SW3       30.26R
PROVINCETOWN   CLOUDY    52  46  80 S7        30.24S
NANTUCKET      CLOUDY    52  34  50 S3        30.25R
MARTHAS VNYRD  LGT RAIN  52  42  69 CALM      30.25R
$$

MAZALL-221100-
CENTRAL AND WESTERN MASSACHUSETTS

CITY           SKY/WX    TMP DP  RH WIND       PRES   REMARKS
WORCESTER      NOT AVBL
FITCHBURG      LGT RAIN  51  44  77 SW5       30.22R
ORANGE         LGT RAIN  48  46  93 SE3       30.19S
SPRINGFIELD    CLOUDY    50  45  81 S5        30.18S
WESTFIELD      CLOUDY    51  46  83 S5        30.19R
NORTH ADAMS    LGT RAIN  47  43  86 E7        30.16S
PITTSFIELD     CLOUDY    47  40  76 CALM      30.14S
$$

RIZALL-221100-
RHODE ISLAND

CITY           SKY/WX    TMP DP  RH WIND       PRES   REMARKS
PROVIDENCE     LGT RAIN  53  49  86 SW5       30.24R
NEWPORT        LGT RAIN  53  44  71 S3        30.23S
BLOCK ISLAND   LGT RAIN  52  47  83 CALM      30.24R
SMITHFIELD     LGT RAIN  48  46  93 CALM      30.22F
WESTERLY       LGT RAIN  53  48  83 SE3       30.23S
$$

CTZALL-221100-
CONNECTICUT

CITY           SKY/WX    TMP DP  RH WIND       PRES   REMARKS
BRADLEY INTL   CLOUDY    52  46  80 S7        30.20S
HARTFORD       CLOUDY    52  48  86 S6        30.20F
BRIDGEPORT     LGT RAIN  53  47  79 E6        30.19F
DANBURY        CLOUDY    49  45  86 S5        30.19F
GROTON         LGT RAIN  53  49  86 E5        30.22S
NEW HAVEN      LGT RAIN  51  46  83 SE3       30.21F
CHESTER        LGT RAIN  50  50 100 CALM      30.21F
MERIDEN        CLOUDY    50  46  86 S5        30.20F
WILLIMANTIC    LGT RAIN  52  48  86 S3        30.22S
OXFORD         CLOUDY    48  43  81 S6        30.20S
$$

MEZ002-015-021-024-NHZ003-005-008-011-012-014-VTZ005-008-221100-
NORTHERN NEW ENGLAND

CITY           SKY/WX    TMP DP  RH WIND       PRES   REMARKS
PORTLAND ME    LGT RAIN  51  47  86 W5        30.20F
BANGOR ME      CLOUDY    52  42  69 S5        30.20R
CONCORD NH     LGT RAIN  50  48  93 CALM      30.21R
MANCHESTER NH  LGT RAIN  52  43  71 SW6       30.20R
NASHUA NH      LGT RAIN  51  48  89 NW3       30.21S
PORTSMOUTH NH  LGT RAIN  51  46  83 SW3       30.20R
JAFFREY NH     LGT RAIN  47  45  93 SW3       30.21R
KEENE NH       LGT RAIN  47  46  97 CALM      30.20R
BURLINGTON VT  CLOUDY    50  46  86 S12       30.09S
MT. WASHINGTON FRZ RAIN  30  30 100 S38G46      N/A  VSB 0   WCI  14
$$

NYZ052-076-221100-
EASTERN NEW YORK

CITY           SKY/WX    TMP DP  RH WIND       PRES   REMARKS
ALBANY         LGT RAIN  50  44  80 E3        30.13S
NEW YORK CITY  LGT RAIN  58  51  78 SE8       30.17F
$$

ANZALL-221100-
MARINE OBSERVATIONS

STATION/POSITION TIME  TEMP    WIND        PRES    VSBY  WAVE
                       AIR SEA DIR/SP/G                  HT/PER
                 (UTC) (F)     (DEG/KT/KT) (MB)    (MI)  (FT/S)
BOSTON BUOY      0850   54 53  230/  6/  6 1022.9          1
BUZZARDS BAY     0900   53     210/  6/  6 1024.4R
NANTUCKET SOUND  0950      54              1024.5R         0
MASS BAY-STELLWA 0904   54 54  220/  6/  8 1022.5S         1/ 3
ISLE OF SHOALS   0900   52     220/  6/  7 1022.8S
S OF BLOCK IS    0955      53                N/A           1/ 9
$$

......................KEY.........................
  SKY/WX - SKY CONDITION/PRESENT WEATHER
  TMP    - TEMPERATURE IN FAHRENHEIT
  DWPT   - DEWPOINT IN FAHRENHEIT
  RH     - RELATIVE HUMIDITY IN PERCENT
  WIND   - DIRECTION AND SPEED IN MPH
  PRES   - MEAN SEA LEVEL PRESSURE IN INCHES OF HG
  WCI    - WIND CHILL INDEX
  VSB    - VISIBILITY IN MILES
  HX     - HEAT INDEX
  TC     - TEMPERATURE IN CELSIUS
  VRB    - VARIABLE WIND DIRECTION
  N/A    - NOT AVAILABLE




USA.gov is the U.S. government's official web portal to all federal, state and local government web resources and services.